軌道要素
Epoch 2022 Jan. 21.0 TT = JDT 2459600.5
T 2022 Jan. 9.61792 TT Rudenko
q 3.5544923 (2000.0) P Q
z -0.0004546 Peri. 171.61060 -0.26052533 -0.66630802
+/-0.0000011 Node 290.79050 +0.83675845 +0.20517644
e 1.0016159 Incl. 48.36122 +0.48162418 -0.71689347
From 1047 observations 2019 June 10-2020 Oct. 16, mean residual 0".4.
|